Overview Statistics Trail Chart Weather Telemetry Raw packets
 

This is the latest recevied weather packets stored in our database for station/object N0HOT. If no packets are shown the sender has not sent any weather packets the latest 10 day(s).

<< 51 52 53 54 55 56 57 >>
Time Temp. Humidity Pressure Rain* Wind** Luminosity Snow
1788308378 22.78° C 86% 1012.2 hPa 7.11 mm - 3 W/m² -
1788308073 22.78° C 87% 1012.2 hPa 3.05 mm - 3 W/m² -
1788307768 22.78° C 87% 1012.2 hPa 1.78 mm - 3 W/m² -
1788307463 23.33° C 86% 1012.2 hPa 0 mm - 6 W/m² -
1788307158 23.33° C 85% 1012.5 hPa 0 mm - 6 W/m² -
1788306853 23.33° C 84% 1012.2 hPa 0 mm - 11 W/m² -
1788306548 23.89° C 84% 1012.2 hPa 0 mm - 6 W/m² -
1788306242 23.89° C 83% 1012.2 hPa 0 mm - 3 W/m² -
1788305937 23.89° C 82% 1012.2 hPa 0 mm - 3 W/m² -
1788305632 24.44° C 81% 1012.5 hPa 3.05 mm - 6 W/m² -
1788305329 25° C 81% 1012.5 hPa 6.1 mm - 6 W/m² -
1788305028 25° C 80% 1011.1 hPa 0 mm - 7 W/m² -
1788304724 25.56° C 79% 1011.8 hPa 0 mm - 9 W/m² -
1788304421 26.11° C 78% 1011.8 hPa 3.05 mm - 6 W/m² -
1788304117 26.67° C 76% 1012.2 hPa 6.1 mm - 11 W/m² -
1788303816 26.67° C 73% 1011.8 hPa 1.27 mm - 7 W/m² -
1788303512 27.22° C 71% 1013.6 hPa 0 mm - 5 W/m² -
1788303211 27.22° C 67% 1013.2 hPa 0 mm - 6 W/m² -
1788302906 27.78° C 65% 1012.8 hPa 0 mm - 6 W/m² -
1788302603 27.78° C 67% 1013.6 hPa 0 mm - 10 W/m² -
1788302299 27.78° C 68% 1013.9 hPa 0 mm - 9 W/m² -
1788301994 27.78° C 67% 1013.2 hPa 0 mm - 11 W/m² -
1788301689 27.78° C 67% 1013.2 hPa 0 mm - 11 W/m² -
1788301386 27.78° C 65% 1012.5 hPa 0 mm - 33 W/m² -
1788301081 27.78° C 64% 1012.2 hPa 0 mm - 85 W/m² -

* Rain latest hour (hover to see other rain measurements)
** Current wind speed in m/s (hover to see current wind gust speed)